Hourly Data Report for October 29, 2017

VICTORIA UNIVERSITY CS
BRITISH COLUMBIA

48°27'25.200" N
123°18'16.600" W
60.10 m
1018598
71783
WYJ

Download Data

Hourly Data (October 2017)
Hourly Data Report for October 29, 2017
TIME
LST
Temp Definition
°C
Dew Point Definition
°C
Rel Hum Definition
%
Precip. Amount Definition
mm

Wind Dir Definition
10's deg

Wind Spd Definition
km/h
Visibility Definition
km
Stn Press Definition
kPa
Hmdx Definition


Wind Chill Definition


Weather Definition


00:00 6.9 6.3 96 0.0 28 2   100.80     LegendNANA
01:00 6.8 6.5 98 0.0 32 5   100.81     LegendNANA
02:00 7.1 6.6 97 0.0 33 4   100.81     LegendNANA
03:00 7.5 6.9 96 0.0 35 4   100.81     LegendNANA
04:00 6.5 6.1 97 0.0 24 4   100.82     LegendNANA
05:00 6.3 5.9 98 0.0 31 5   100.87     LegendNANA
06:00 8.3 8.0 98 0.0 32 5   100.87     LegendNANA
07:00 6.7 6.0 95 0.0 3 1   100.95     LegendNANA
08:00 8.5 8.1 97 0.0 34 5   101.00     LegendNANA
09:00 11.7 9.4 86 0.2 35 6   101.05     LegendNANA
10:00 13.2 9.2 77 0.0 35 9   101.07     LegendNANA
11:00 15.8 8.8 63 0.0 33 9   101.11     LegendNANA
12:00 16.9 7.2 53 0.0 1 12   101.07     LegendNANA
13:00 17.3 6.9 50 0.0 36 13   101.05     LegendNANA
14:00 17.6 6.6 49 0.0 35 11   101.04     LegendNANA
15:00 17.6 5.5 45 0.0 1 12   101.05     LegendNANA
16:00 16.7 5.0 46 0.0 36 11   101.07     LegendNANA
17:00 16.3 4.6 46 0.0 36 16   101.11     LegendNANA
18:00 15.8 3.2 43 0.0 36 16   101.15     LegendNANA
19:00 15.6 1.6 39 0.0 1 17   101.21     LegendNANA
20:00 15.3 -0.7 33 0.0 1 18   101.27     LegendNANA
21:00 14.5 0.2 38 0.0 36 14   101.34     LegendNANA
22:00 13.8 0.6 41 0.0 36 10   101.42     LegendNANA
23:00 13.5 0.1 40 0.0 36 10   101.45     LegendNANA

Notes on Data Quality.

Legend

  • E = Estimated
  • M = Missing
  • NA = Not Available*
  • [empty] = Indicates an unobserved value
Date modified: